Time,TemperatureF,DewpointF,PressureIn,WindDirection,WindDirectionDegrees,WindSpeedMPH,WindSpeedGustMPH,Humidity,HourlyPrecipIn,Conditions,Clouds,dailyrainin,SoftwareType,DateUTC
2013-09-27 00:01:00,69.1,48.0,30.00,South,180,0.0,0.0,47,0.00,,,0.00,VWS V14.01,2013-09-27 05:01:00,
2013-09-27 00:06:00,68.9,48.4,30.00,SSE,158,0.0,0.0,48,0.00,,,0.00,VWS V14.01,2013-09-27 05:06:00,
2013-09-27 00:11:00,68.9,48.4,30.00,South,180,0.0,0.0,48,0.00,,,0.00,VWS V14.01,2013-09-27 05:11:00,
2013-09-27 00:16:00,68.9,48.4,30.00,South,180,0.0,0.0,48,0.00,,,0.00,VWS V14.01,2013-09-27 05:16:00,
2013-09-27 00:21:00,68.7,48.3,30.00,South,180,0.0,0.0,48,0.00,,,0.00,VWS V14.01,2013-09-27 05:21:00,
2013-09-27 00:26:00,68.7,48.3,30.00,South,180,0.0,0.0,48,0.00,,,0.00,VWS V14.01,2013-09-27 05:26:00,
2013-09-27 00:31:00,68.5,48.1,30.00,South,180,0.0,0.0,48,0.00,,,0.00,VWS V14.01,2013-09-27 05:31:00,
2013-09-27 00:36:00,68.5,48.1,30.00,South,180,0.0,0.0,48,0.00,,,0.00,VWS V14.01,2013-09-27 05:36:00,
2013-09-27 00:41:00,68.4,47.9,30.00,SSE,158,0.0,0.0,48,0.00,,,0.00,VWS V14.01,2013-09-27 05:41:00,
2013-09-27 00:46:00,68.4,47.9,30.00,South,180,0.0,0.0,48,0.00,,,0.00,VWS V14.01,2013-09-27 05:46:00,
2013-09-27 00:51:00,68.4,47.9,30.00,SSE,158,0.0,0.0,48,0.00,,,0.00,VWS V14.01,2013-09-27 05:51:00,
2013-09-27 00:56:00,68.2,47.8,30.00,SSE,158,0.0,0.0,48,0.00,,,0.00,VWS V14.01,2013-09-27 05:56:00,
2013-09-27 01:01:00,68.0,47.6,30.00,South,180,0.0,0.0,48,0.00,,,0.00,VWS V14.01,2013-09-27 06:01:00,
2013-09-27 01:06:00,68.0,47.6,30.00,South,180,0.0,0.0,48,0.00,,,0.00,VWS V14.01,2013-09-27 06:06:00,
2013-09-27 01:11:00,67.8,48.0,30.00,South,180,0.0,0.0,49,0.00,,,0.00,VWS V14.01,2013-09-27 06:11:00,
2013-09-27 01:16:00,67.8,48.0,30.00,SE,135,0.0,0.0,49,0.00,,,0.00,VWS V14.01,2013-09-27 06:16:00,
2013-09-27 01:21:00,67.6,47.8,30.00,SE,135,0.0,0.0,49,0.00,,,0.00,VWS V14.01,2013-09-27 06:21:00,
2013-09-27 01:26:00,67.6,47.8,30.00,SE,135,0.0,0.0,49,0.00,,,0.00,VWS V14.01,2013-09-27 06:26:00,
2013-09-27 01:31:00,67.5,47.7,30.00,SE,135,0.0,0.0,49,0.00,,,0.00,VWS V14.01,2013-09-27 06:31:00,
2013-09-27 01:36:00,67.5,47.7,30.00,SE,135,0.0,0.0,49,0.00,,,0.00,VWS V14.01,2013-09-27 06:36:00,
2013-09-27 01:41:00,67.5,47.7,30.00,SE,135,0.0,0.0,49,0.00,,,0.00,VWS V14.01,2013-09-27 06:41:00,
2013-09-27 01:46:00,67.3,48.0,30.00,South,180,0.0,0.0,50,0.00,,,0.00,VWS V14.01,2013-09-27 06:46:00,
2013-09-27 01:51:00,67.3,48.0,30.00,SSE,158,0.0,0.0,50,0.00,,,0.00,VWS V14.01,2013-09-27 06:51:00,
2013-09-27 01:56:00,67.3,48.0,30.00,South,180,0.0,0.0,50,0.00,,,0.00,VWS V14.01,2013-09-27 06:56:00,
2013-09-27 02:01:00,67.1,47.9,30.00,South,180,0.0,0.0,50,0.00,,,0.00,VWS V14.01,2013-09-27 07:01:00,
2013-09-27 02:06:00,67.1,47.9,30.00,SSE,158,0.0,0.0,50,0.00,,,0.00,VWS V14.01,2013-09-27 07:06:00,
2013-09-27 02:11:00,66.9,48.2,30.00,SSE,158,0.0,0.0,51,0.00,,,0.00,VWS V14.01,2013-09-27 07:11:00,
2013-09-27 02:16:00,66.7,48.1,30.00,South,180,0.0,0.0,51,0.00,,,0.00,VWS V14.01,2013-09-27 07:16:00,
2013-09-27 02:21:00,66.7,48.1,30.00,SSE,158,0.0,0.0,51,0.00,,,0.00,VWS V14.01,2013-09-27 07:21:00,
2013-09-27 02:26:00,66.7,48.1,30.00,South,180,0.0,0.0,51,0.00,,,0.00,VWS V14.01,2013-09-27 07:26:00,
2013-09-27 02:31:00,66.6,48.4,30.00,South,180,0.0,0.0,52,0.00,,,0.00,VWS V14.01,2013-09-27 07:31:00,
2013-09-27 02:36:00,66.4,48.2,30.00,SSE,158,0.0,0.0,52,0.00,,,0.00,VWS V14.01,2013-09-27 07:36:00,
2013-09-27 02:41:00,66.4,48.2,30.00,SSE,158,0.0,0.0,52,0.00,,,0.00,VWS V14.01,2013-09-27 07:41:00,
2013-09-27 02:47:00,66.2,48.6,30.00,ESE,112,0.0,0.0,53,0.00,,,0.00,VWS V14.01,2013-09-27 07:47:00,
2013-09-27 02:49:00,66.0,48.4,30.00,ESE,112,0.0,0.0,53,0.00,,,0.00,VWS V14.01,2013-09-27 07:49:00,
2013-09-27 02:54:00,65.8,48.8,30.00,ESE,112,0.0,0.0,54,0.00,,,0.62,VWS V14.01,2013-09-27 07:54:00,
2013-09-27 02:59:00,65.8,48.8,30.00,ESE,112,0.0,0.0,54,0.00,,,0.00,VWS V14.01,2013-09-27 07:59:00,
2013-09-27 03:04:00,65.7,49.1,30.00,ESE,112,0.0,0.0,55,0.00,,,0.00,VWS V14.01,2013-09-27 08:04:00,
2013-09-27 03:09:00,65.5,48.9,30.00,ESE,112,0.0,0.0,55,0.00,,,0.00,VWS V14.01,2013-09-27 08:09:00,
2013-09-27 03:14:00,65.3,49.2,30.00,ESE,112,0.0,0.0,56,0.00,,,0.00,VWS V14.01,2013-09-27 08:14:00,
2013-09-27 03:19:00,65.1,49.0,30.00,ESE,112,0.0,0.0,56,0.00,,,0.00,VWS V14.01,2013-09-27 08:19:00,
2013-09-27 03:24:00,65.1,49.5,30.00,ESE,112,0.0,0.0,57,0.00,,,0.00,VWS V14.01,2013-09-27 08:24:00,
2013-09-27 03:29:00,64.9,49.4,30.00,ESE,112,0.0,0.0,57,0.00,,,0.00,VWS V14.01,2013-09-27 08:29:00,
2013-09-27 03:34:00,64.9,49.4,30.00,ESE,112,0.0,0.0,57,0.00,,,0.00,VWS V14.01,2013-09-27 08:34:00,
2013-09-27 03:39:00,64.8,49.7,30.00,ESE,112,0.0,0.0,58,0.00,,,0.00,VWS V14.01,2013-09-27 08:39:00,
2013-09-27 03:44:00,64.8,49.7,30.00,ESE,112,0.0,0.0,58,0.00,,,0.00,VWS V14.01,2013-09-27 08:44:00,
2013-09-27 03:49:00,64.6,49.5,30.00,ESE,112,0.0,0.0,58,0.00,,,0.00,VWS V14.01,2013-09-27 08:49:00,
2013-09-27 03:54:00,64.6,50.0,30.00,ESE,112,0.0,0.0,59,0.00,,,0.00,VWS V14.01,2013-09-27 08:54:00,
2013-09-27 03:59:00,64.4,49.8,30.00,ESE,112,0.0,0.0,59,0.00,,,0.00,VWS V14.01,2013-09-27 08:59:00,
2013-09-27 04:04:00,64.4,49.8,30.00,ESE,112,0.0,0.0,59,0.00,,,0.00,VWS V14.01,2013-09-27 09:04:00,
2013-09-27 04:09:00,64.2,50.1,30.03,ESE,112,0.0,0.0,60,0.00,,,0.00,VWS V14.01,2013-09-27 09:09:00,
2013-09-27 04:14:00,64.2,50.1,30.03,ESE,112,0.0,0.0,60,0.00,,,0.00,VWS V14.01,2013-09-27 09:14:00,
2013-09-27 04:19:00,64.2,50.5,30.03,ESE,112,0.0,0.0,61,0.00,,,0.00,VWS V14.01,2013-09-27 09:19:00,
2013-09-27 04:24:00,64.0,50.3,30.03,ESE,112,0.0,0.0,61,0.00,,,0.00,VWS V14.01,2013-09-27 09:24:00,
2013-09-27 04:29:00,64.0,50.8,30.03,ESE,112,0.0,0.0,62,0.00,,,0.00,VWS V14.01,2013-09-27 09:29:00,
2013-09-27 04:34:00,64.0,50.8,30.03,ESE,112,0.0,0.0,62,0.00,,,0.00,VWS V14.01,2013-09-27 09:34:00,
2013-09-27 04:39:00,64.0,50.8,30.03,ESE,112,0.0,0.0,62,0.00,,,0.00,VWS V14.01,2013-09-27 09:39:00,
2013-09-27 04:44:00,63.9,50.6,30.03,ESE,112,0.0,0.0,62,0.00,,,0.00,VWS V14.01,2013-09-27 09:44:00,
2013-09-27 04:49:00,63.9,51.0,30.03,ESE,112,0.0,0.0,63,0.00,,,0.00,VWS V14.01,2013-09-27 09:49:00,
2013-09-27 04:54:00,63.9,51.0,30.03,ESE,112,0.0,0.0,63,0.00,,,0.00,VWS V14.01,2013-09-27 09:54:00,
2013-09-27 04:59:00,63.9,51.0,30.03,ESE,112,0.0,0.0,63,0.00,,,0.00,VWS V14.01,2013-09-27 09:59:00,
2013-09-27 05:04:00,63.7,50.9,30.03,ESE,112,0.0,0.0,63,0.00,,,0.00,VWS V14.01,2013-09-27 10:04:00,
2013-09-27 05:09:00,63.5,51.1,30.03,ESE,112,0.0,0.0,64,0.00,,,0.00,VWS V14.01,2013-09-27 10:09:00,
2013-09-27 05:14:00,63.5,51.1,30.03,ESE,112,0.0,0.0,64,0.00,,,0.00,VWS V14.01,2013-09-27 10:14:00,
2013-09-27 05:19:00,63.5,51.1,30.03,ESE,112,0.0,0.0,64,0.00,,,0.00,VWS V14.01,2013-09-27 10:19:00,
2013-09-27 05:24:00,63.3,51.4,30.03,ESE,112,0.0,0.0,65,0.00,,,0.00,VWS V14.01,2013-09-27 10:24:00,
2013-09-27 05:29:00,63.3,51.4,30.03,ESE,112,0.0,0.0,65,0.00,,,0.00,VWS V14.01,2013-09-27 10:29:00,
2013-09-27 05:34:00,63.3,51.4,30.03,ESE,112,0.0,0.0,65,0.00,,,0.00,VWS V14.01,2013-09-27 10:34:00,
2013-09-27 05:39:00,63.3,51.8,30.03,ESE,112,0.0,0.0,66,0.00,,,0.00,VWS V14.01,2013-09-27 10:39:00,
2013-09-27 05:44:00,63.3,51.8,30.03,ESE,112,0.0,0.0,66,0.00,,,0.00,VWS V14.01,2013-09-27 10:44:00,
2013-09-27 05:49:00,63.3,51.8,30.03,ESE,112,0.0,0.0,66,0.00,,,0.00,VWS V14.01,2013-09-27 10:49:00,
2013-09-27 05:54:00,63.3,51.8,30.03,ESE,112,0.0,0.0,66,0.00,,,0.00,VWS V14.01,2013-09-27 10:54:00,
2013-09-27 05:59:00,63.3,51.8,30.03,SSE,158,0.0,0.0,66,0.00,,,0.00,VWS V14.01,2013-09-27 10:59:00,
2013-09-27 06:04:00,63.3,51.8,30.03,SSE,158,0.0,0.0,66,0.00,,,0.00,VWS V14.01,2013-09-27 11:04:00,
2013-09-27 06:09:00,63.3,52.2,30.06,SSE,158,0.0,0.0,67,0.00,,,0.00,VWS V14.01,2013-09-27 11:09:00,
2013-09-27 06:14:00,63.1,52.0,30.06,SSE,158,0.0,0.0,67,0.00,,,0.00,VWS V14.01,2013-09-27 11:14:00,
2013-09-27 06:19:00,63.1,52.0,30.06,SSE,158,0.0,0.0,67,0.00,,,0.00,VWS V14.01,2013-09-27 11:19:00,
2013-09-27 06:24:00,63.1,52.0,30.06,SSE,158,0.0,0.0,67,0.00,,,0.00,VWS V14.01,2013-09-27 11:24:00,
2013-09-27 06:29:00,63.1,52.4,30.06,South,180,0.0,0.0,68,0.00,,,0.00,VWS V14.01,2013-09-27 11:29:00,
2013-09-27 06:34:00,63.0,52.2,30.06,ESE,112,0.0,0.0,68,0.00,,,0.00,VWS V14.01,2013-09-27 11:34:00,
2013-09-27 06:39:00,63.0,52.2,30.03,South,180,0.0,0.0,68,0.00,,,0.00,VWS V14.01,2013-09-27 11:39:00,
2013-09-27 06:44:00,63.0,52.6,30.03,SSE,158,0.0,0.0,69,0.00,,,0.00,VWS V14.01,2013-09-27 11:44:00,
2013-09-27 06:49:00,63.0,52.6,30.03,SSE,158,0.0,0.0,69,0.00,,,0.00,VWS V14.01,2013-09-27 11:49:00,
2013-09-27 06:54:00,63.0,52.6,30.06,SSE,158,0.0,0.0,69,0.00,,,0.00,VWS V14.01,2013-09-27 11:54:00,
2013-09-27 06:59:00,63.0,52.6,30.06,ESE,112,0.0,0.0,69,0.00,,,0.00,VWS V14.01,2013-09-27 11:59:00,
2013-09-27 07:04:00,62.8,52.5,30.06,ESE,112,0.0,0.0,69,0.00,,,0.00,VWS V14.01,2013-09-27 12:04:00,
2013-09-27 07:09:00,62.8,52.9,30.06,ESE,112,0.0,0.0,70,0.00,,,0.00,VWS V14.01,2013-09-27 12:09:00,
2013-09-27 07:14:00,62.8,52.9,30.06,ESE,112,0.0,0.0,70,0.00,,,0.00,VWS V14.01,2013-09-27 12:14:00,
2013-09-27 07:19:00,62.8,52.9,30.06,ESE,112,0.0,0.0,70,0.00,,,0.00,VWS V14.01,2013-09-27 12:19:00,
2013-09-27 07:24:00,62.8,53.2,30.06,ESE,112,0.0,0.0,71,0.00,,,0.00,VWS V14.01,2013-09-27 12:24:00,
2013-09-27 07:29:00,63.0,53.4,30.06,ESE,112,0.0,0.0,71,0.00,,,0.00,VWS V14.01,2013-09-27 12:29:00,
2013-09-27 07:34:00,63.0,53.4,30.06,ESE,112,0.0,0.0,71,0.00,,,0.00,VWS V14.01,2013-09-27 12:34:00,
2013-09-27 07:39:00,63.0,53.4,30.06,ESE,112,0.0,0.0,71,0.00,,,0.00,VWS V14.01,2013-09-27 12:39:00,
2013-09-27 07:44:00,63.1,53.6,30.06,ESE,112,0.0,0.0,71,0.00,,,0.00,VWS V14.01,2013-09-27 12:44:00,
2013-09-27 07:49:00,63.5,53.9,30.06,ESE,112,0.0,0.0,71,0.00,,,0.00,VWS V14.01,2013-09-27 12:49:00,
2013-09-27 07:54:00,63.9,54.3,30.06,ESE,112,0.0,0.0,71,0.00,,,0.00,VWS V14.01,2013-09-27 12:54:00,
2013-09-27 07:59:00,64.2,54.2,30.06,SSE,158,0.0,0.0,70,0.00,,,0.00,VWS V14.01,2013-09-27 12:59:00,
2013-09-27 08:04:00,64.4,54.0,30.06,South,180,0.0,0.0,69,0.00,,,0.00,VWS V14.01,2013-09-27 13:04:00,
2013-09-27 08:09:00,65.1,53.9,30.06,South,180,0.0,0.0,67,0.00,,,0.00,VWS V14.01,2013-09-27 13:09:00,
2013-09-27 08:14:00,66.0,54.3,30.06,SSE,158,0.0,0.0,66,0.00,,,0.00,VWS V14.01,2013-09-27 13:14:00,
2013-09-27 08:19:00,66.7,54.2,30.06,SE,135,0.0,0.0,64,0.00,,,0.00,VWS V14.01,2013-09-27 13:19:00,
2013-09-27 08:24:00,67.6,53.7,30.06,ESE,112,0.0,0.0,61,0.00,,,0.00,VWS V14.01,2013-09-27 13:24:00,
2013-09-27 08:29:00,68.4,53.5,30.06,South,180,0.0,0.0,59,0.00,,,0.00,VWS V14.01,2013-09-27 13:29:00,
2013-09-27 08:34:00,68.9,53.1,30.06,SSE,158,0.0,0.0,57,0.00,,,0.00,VWS V14.01,2013-09-27 13:34:00,
2013-09-27 08:39:00,69.6,53.7,30.06,SSE,158,0.0,0.0,57,0.00,,,0.00,VWS V14.01,2013-09-27 13:39:00,
2013-09-27 08:44:00,69.8,53.4,30.06,South,180,0.0,0.0,56,0.00,,,0.00,VWS V14.01,2013-09-27 13:44:00,
2013-09-27 08:49:00,70.0,53.6,30.06,SSE,158,0.0,0.0,56,0.00,,,0.00,VWS V14.01,2013-09-27 13:49:00,
2013-09-27 08:54:00,70.3,53.4,30.06,South,180,0.0,0.0,55,0.00,,,0.00,VWS V14.01,2013-09-27 13:54:00,
2013-09-27 08:59:00,70.5,53.6,30.06,SSE,158,0.0,0.0,55,0.00,,,0.00,VWS V14.01,2013-09-27 13:59:00,
2013-09-27 09:04:00,70.5,53.6,30.06,South,180,0.0,0.0,55,0.00,,,0.00,VWS V14.01,2013-09-27 14:04:00,
2013-09-27 09:09:00,70.7,53.8,30.06,South,180,0.0,0.0,55,0.00,,,0.00,VWS V14.01,2013-09-27 14:09:00,
2013-09-27 09:14:00,70.9,54.4,30.06,South,180,0.0,0.0,56,0.00,,,0.00,VWS V14.01,2013-09-27 14:14:00,
2013-09-27 09:19:00,71.1,54.6,30.06,SSW,202,0.0,0.0,56,0.00,,,0.00,VWS V14.01,2013-09-27 14:19:00,
2013-09-27 09:24:00,71.4,54.9,30.06,South,180,0.0,0.0,56,0.00,,,0.00,VWS V14.01,2013-09-27 14:24:00,
2013-09-27 09:29:00,72.1,55.1,30.06,SSE,158,0.0,0.0,55,0.00,,,0.00,VWS V14.01,2013-09-27 14:29:00,
2013-09-27 09:34:00,72.5,54.9,30.06,SSE,158,0.0,0.0,54,0.00,,,0.00,VWS V14.01,2013-09-27 14:34:00,
2013-09-27 09:39:00,73.0,55.4,30.06,South,180,0.0,0.0,54,0.00,,,0.00,VWS V14.01,2013-09-27 14:39:00,
2013-09-27 09:44:00,73.4,55.2,30.06,SSE,158,0.0,0.0,53,0.00,,,0.00,VWS V14.01,2013-09-27 14:44:00,
2013-09-27 09:49:00,73.6,55.4,30.06,South,180,0.0,0.0,53,0.00,,,0.00,VWS V14.01,2013-09-27 14:49:00,
2013-09-27 09:54:00,73.9,55.8,30.06,South,180,0.0,0.0,53,0.00,,,0.00,VWS V14.01,2013-09-27 14:54:00,
2013-09-27 09:59:00,74.1,55.4,30.06,South,180,0.0,0.0,52,0.00,,,0.00,VWS V14.01,2013-09-27 14:59:00,
2013-09-27 10:04:00,74.5,56.2,30.06,SSW,202,0.0,0.0,53,0.00,,,0.00,VWS V14.01,2013-09-27 15:04:00,
2013-09-27 10:09:00,74.8,56.0,30.09,South,180,0.0,0.0,52,0.00,,,0.00,VWS V14.01,2013-09-27 15:09:00,
2013-09-27 10:14:00,75.0,56.2,30.09,South,180,0.0,0.0,52,0.00,,,0.00,VWS V14.01,2013-09-27 15:14:00,
2013-09-27 10:19:00,75.2,56.4,30.09,South,180,0.0,0.0,52,0.00,,,0.00,VWS V14.01,2013-09-27 15:19:00,
2013-09-27 10:24:00,75.4,56.5,30.06,SSW,202,0.0,0.0,52,0.00,,,0.00,VWS V14.01,2013-09-27 15:24:00,
2013-09-27 10:29:00,75.7,56.9,30.06,South,180,0.0,0.0,52,0.00,,,0.00,VWS V14.01,2013-09-27 15:29:00,
2013-09-27 10:34:00,75.9,56.5,30.06,South,180,0.0,0.0,51,0.00,,,0.00,VWS V14.01,2013-09-27 15:34:00,
2013-09-27 10:39:00,75.9,56.5,30.06,South,180,0.0,0.0,51,0.00,,,0.00,VWS V14.01,2013-09-27 15:39:00,
2013-09-27 10:44:00,76.3,56.8,30.06,South,180,0.0,0.0,51,0.00,,,0.00,VWS V14.01,2013-09-27 15:44:00,
2013-09-27 10:49:00,76.3,56.8,30.06,South,180,0.0,0.0,51,0.00,,,0.00,VWS V14.01,2013-09-27 15:49:00,
2013-09-27 10:54:00,76.3,56.8,30.06,SSW,202,0.0,0.0,51,0.00,,,0.00,VWS V14.01,2013-09-27 15:54:00,
2013-09-27 10:59:00,76.5,57.5,30.06,SSW,202,0.0,0.0,52,0.00,,,0.00,VWS V14.01,2013-09-27 15:59:00,
2013-09-27 11:04:00,76.8,57.3,30.06,SSW,202,0.0,0.0,51,0.00,,,0.00,VWS V14.01,2013-09-27 16:04:00,
2013-09-27 11:09:00,77.4,56.7,30.06,SSE,158,4.9,5.8,49,0.00,,,0.00,VWS V14.01,2013-09-27 16:09:00,
2013-09-27 11:14:00,77.4,57.3,30.06,South,180,0.0,0.0,50,0.00,,,0.00,VWS V14.01,2013-09-27 16:14:00,
2013-09-27 11:19:00,77.7,57.1,30.06,South,180,3.6,6.3,49,0.00,,,0.00,VWS V14.01,2013-09-27 16:19:00,
2013-09-27 11:24:00,77.7,57.1,30.06,ESE,112,0.0,5.8,49,0.00,,,0.00,VWS V14.01,2013-09-27 16:24:00,
2013-09-27 11:29:00,78.1,56.8,30.06,SSW,202,4.0,4.0,48,0.00,,,0.00,VWS V14.01,2013-09-27 16:29:00,
2013-09-27 11:34:00,78.4,57.1,30.06,South,180,0.0,0.0,48,0.00,,,0.00,VWS V14.01,2013-09-27 16:34:00,
2013-09-27 11:39:00,79.0,57.0,30.06,SSE,158,4.9,5.4,47,0.00,,,0.00,VWS V14.01,2013-09-27 16:39:00,
2013-09-27 11:44:00,79.0,57.0,30.06,South,180,4.9,7.2,47,0.00,,,0.00,VWS V14.01,2013-09-27 16:44:00,
2013-09-27 11:49:00,79.0,57.0,30.06,South,180,0.0,0.0,47,0.00,,,0.00,VWS V14.01,2013-09-27 16:49:00,
2013-09-27 11:54:00,79.3,56.8,30.03,SSE,158,0.0,0.0,46,0.00,,,0.00,VWS V14.01,2013-09-27 16:54:00,
2013-09-27 11:59:00,79.2,56.6,30.03,South,180,0.0,0.0,46,0.00,,,0.00,VWS V14.01,2013-09-27 16:59:00,
2013-09-27 12:04:00,79.5,56.3,30.03,SSE,158,5.4,6.3,45,0.00,,,0.00,VWS V14.01,2013-09-27 17:04:00,
2013-09-27 12:09:00,79.9,57.3,30.03,SSW,202,0.0,0.0,46,0.00,,,0.00,VWS V14.01,2013-09-27 17:09:00,
2013-09-27 12:14:00,79.9,56.0,30.03,South,180,0.0,5.4,44,0.00,,,0.00,VWS V14.01,2013-09-27 17:14:00,
2013-09-27 12:19:00,79.9,56.0,30.03,SSE,158,4.9,7.6,44,0.00,,,0.00,VWS V14.01,2013-09-27 17:19:00,
2013-09-27 12:24:00,79.9,56.0,30.03,SSW,202,0.0,0.0,44,0.00,,,0.00,VWS V14.01,2013-09-27 17:24:00,
2013-09-27 12:26:00,80.1,55.6,30.03,SSW,202,0.0,0.0,43,0.00,,,0.00,VWS V14.01,2013-09-27 17:26:00,
2013-09-27 12:31:00,80.1,56.2,30.03,NE,45,0.0,0.0,44,0.00,,,0.00,VWS V14.01,2013-09-27 17:31:00,
2013-09-27 12:36:00,80.4,55.9,30.03,SSW,202,0.0,3.1,43,0.00,,,0.00,VWS V14.01,2013-09-27 17:36:00,
2013-09-27 12:41:00,80.8,56.2,30.03,South,180,10.5,10.5,43,0.00,,,0.00,VWS V14.01,2013-09-27 17:41:00,
2013-09-27 12:46:00,80.8,54.9,30.03,South,180,8.1,8.1,41,0.00,,,0.00,VWS V14.01,2013-09-27 17:46:00,
2013-09-27 12:51:00,80.8,54.9,30.03,SSW,202,0.0,4.9,41,0.00,,,0.00,VWS V14.01,2013-09-27 17:51:00,
2013-09-27 12:56:00,80.8,54.9,30.03,ESE,112,4.9,7.6,41,0.00,,,0.00,VWS V14.01,2013-09-27 17:56:00,
2013-09-27 13:01:00,81.0,55.1,30.03,SSW,202,0.0,0.0,41,0.00,,,0.00,VWS V14.01,2013-09-27 18:01:00,
2013-09-27 13:06:00,81.1,55.2,30.00,SW,225,0.0,3.6,41,0.00,,,0.00,VWS V14.01,2013-09-27 18:06:00,
2013-09-27 13:11:00,81.5,54.9,30.00,SSW,202,0.0,0.0,40,0.00,,,0.00,VWS V14.01,2013-09-27 18:11:00,
2013-09-27 13:16:00,81.1,54.5,30.00,South,180,3.6,3.6,40,0.00,,,0.00,VWS V14.01,2013-09-27 18:16:00,
2013-09-27 13:21:00,81.5,55.5,30.00,South,180,0.0,0.0,41,0.00,,,0.00,VWS V14.01,2013-09-27 18:21:00,
2013-09-27 13:26:00,81.7,55.0,30.00,SSW,202,4.9,4.9,40,0.00,,,0.00,VWS V14.01,2013-09-27 18:26:00,
2013-09-27 13:31:00,81.9,55.2,30.00,South,180,7.6,7.6,40,0.00,,,0.00,VWS V14.01,2013-09-27 18:31:00,
2013-09-27 13:36:00,82.0,54.7,30.00,South,180,7.2,7.2,39,0.00,,,0.00,VWS V14.01,2013-09-27 18:36:00,
2013-09-27 13:41:00,81.9,54.5,30.00,South,180,0.0,0.0,39,0.00,,,0.00,VWS V14.01,2013-09-27 18:41:00,
2013-09-27 13:46:00,81.9,54.5,30.00,SSW,202,0.0,0.0,39,0.00,,,0.00,VWS V14.01,2013-09-27 18:46:00,
2013-09-27 13:51:00,81.7,53.6,30.00,SSW,202,4.9,4.9,38,0.00,,,0.00,VWS V14.01,2013-09-27 18:51:00,
2013-09-27 13:56:00,81.3,53.3,30.00,South,180,0.0,0.0,38,0.00,,,0.00,VWS V14.01,2013-09-27 18:56:00,
2013-09-27 14:01:00,81.5,52.7,30.00,SSE,158,0.0,0.0,37,0.00,,,0.00,VWS V14.01,2013-09-27 19:01:00,
2013-09-27 14:06:00,81.5,53.5,30.00,South,180,0.0,0.0,38,0.00,,,0.00,VWS V14.01,2013-09-27 19:06:00,
2013-09-27 14:11:00,81.5,53.5,30.00,SSW,202,0.0,0.0,38,0.00,,,0.00,VWS V14.01,2013-09-27 19:11:00,
2013-09-27 14:16:00,81.0,53.0,30.00,SSE,158,0.0,0.0,38,0.00,,,0.00,VWS V14.01,2013-09-27 19:16:00,
2013-09-27 14:21:00,81.1,52.4,30.00,South,180,0.0,0.0,37,0.00,,,0.00,VWS V14.01,2013-09-27 19:21:00,
2013-09-27 14:26:00,81.1,51.7,30.00,South,180,4.0,4.0,36,0.00,,,0.00,VWS V14.01,2013-09-27 19:26:00,
2013-09-27 14:31:00,81.3,51.8,30.00,South,180,0.0,3.1,36,0.00,,,0.00,VWS V14.01,2013-09-27 19:31:00,
2013-09-27 14:36:00,81.7,52.2,30.00,South,180,0.0,0.0,36,0.00,,,0.00,VWS V14.01,2013-09-27 19:36:00,
2013-09-27 14:41:00,81.7,51.4,30.00,SSE,158,3.1,3.1,35,0.00,,,0.00,VWS V14.01,2013-09-27 19:41:00,
2013-09-27 14:46:00,81.3,51.1,30.00,South,180,4.0,7.6,35,0.00,,,0.00,VWS V14.01,2013-09-27 19:46:00,
2013-09-27 14:51:00,81.1,50.9,30.00,South,180,0.0,0.0,35,0.00,,,0.00,VWS V14.01,2013-09-27 19:51:00,
2013-09-27 14:56:00,81.3,50.3,30.00,South,180,9.2,9.2,34,0.00,,,0.00,VWS V14.01,2013-09-27 19:56:00,
2013-09-27 15:01:00,81.3,50.3,30.00,South,180,5.8,8.7,34,0.00,,,0.00,VWS V14.01,2013-09-27 20:01:00,
2013-09-27 15:06:00,81.1,50.1,30.00,SSE,158,0.0,0.0,34,0.00,,,0.00,VWS V14.01,2013-09-27 20:06:00,
2013-09-27 15:11:00,81.0,49.2,30.00,South,180,0.0,0.0,33,0.00,,,0.00,VWS V14.01,2013-09-27 20:11:00,
2013-09-27 15:16:00,81.1,50.1,30.00,East,90,0.0,0.0,34,0.00,,,0.00,VWS V14.01,2013-09-27 20:16:00,
2013-09-27 15:21:00,81.3,49.5,29.97,SSE,158,0.0,4.9,33,0.00,,,0.00,VWS V14.01,2013-09-27 20:21:00,
2013-09-27 15:26:00,81.3,48.7,29.97,SSE,158,0.0,3.6,32,0.00,,,0.00,VWS V14.01,2013-09-27 20:26:00,
2013-09-27 15:31:00,81.5,48.8,29.97,SSE,158,0.0,0.0,32,0.00,,,0.00,VWS V14.01,2013-09-27 20:31:00,
2013-09-27 15:36:00,81.7,49.0,30.00,SSW,202,0.0,5.4,32,0.00,,,0.00,VWS V14.01,2013-09-27 20:36:00,
2013-09-27 15:41:00,81.7,48.1,30.00,South,180,0.0,0.0,31,0.00,,,0.00,VWS V14.01,2013-09-27 20:41:00,
2013-09-27 15:46:00,81.3,47.8,30.00,South,180,5.4,5.4,31,0.00,,,0.00,VWS V14.01,2013-09-27 20:46:00,
2013-09-27 15:51:00,81.5,48.0,30.00,South,180,0.0,8.1,31,0.00,,,0.00,VWS V14.01,2013-09-27 20:51:00,
2013-09-27 15:56:00,81.3,47.8,30.00,South,180,4.0,4.9,31,0.00,,,0.00,VWS V14.01,2013-09-27 20:56:00,
2013-09-27 16:01:00,81.5,48.0,30.00,SE,135,0.0,5.4,31,0.00,,,0.00,VWS V14.01,2013-09-27 21:01:00,
2013-09-27 16:06:00,81.3,47.8,29.97,SSW,202,0.0,0.0,31,0.00,,,0.00,VWS V14.01,2013-09-27 21:06:00,
2013-09-27 16:11:00,81.1,46.8,29.97,NE,45,0.0,4.9,30,0.00,,,0.00,VWS V14.01,2013-09-27 21:11:00,
2013-09-27 16:16:00,81.3,47.8,29.97,South,180,0.0,0.0,31,0.00,,,0.00,VWS V14.01,2013-09-27 21:16:00,
2013-09-27 16:21:00,81.3,47.0,29.97,SSE,158,5.4,7.6,30,0.00,,,0.00,VWS V14.01,2013-09-27 21:21:00,
2013-09-27 16:26:00,81.3,47.0,29.97,South,180,3.1,3.1,30,0.00,,,0.00,VWS V14.01,2013-09-27 21:26:00,
2013-09-27 16:31:00,81.3,47.0,29.97,ESE,112,0.0,4.9,30,0.00,,,0.00,VWS V14.01,2013-09-27 21:31:00,
2013-09-27 16:36:00,81.3,47.0,30.00,SSW,202,0.0,0.0,30,0.00,,,0.00,VWS V14.01,2013-09-27 21:36:00,
2013-09-27 16:41:00,81.3,47.0,30.00,South,180,4.0,4.0,30,0.00,,,0.00,VWS V14.01,2013-09-27 21:41:00,
2013-09-27 16:46:00,81.1,46.8,30.00,South,180,7.2,7.2,30,0.00,,,0.00,VWS V14.01,2013-09-27 21:46:00,
2013-09-27 16:51:00,81.1,46.8,29.97,SSW,202,0.0,0.0,30,0.00,,,0.00,VWS V14.01,2013-09-27 21:51:00,
2013-09-27 16:56:00,81.3,47.0,29.97,SSW,202,5.8,5.8,30,0.00,,,0.00,VWS V14.01,2013-09-27 21:56:00,
2013-09-27 17:01:00,81.3,47.0,29.97,SSE,158,0.0,0.0,30,0.00,,,0.00,VWS V14.01,2013-09-27 22:01:00,
2013-09-27 17:06:00,81.3,47.0,29.97,SSW,202,5.8,5.8,30,0.00,,,0.00,VWS V14.01,2013-09-27 22:06:00,
2013-09-27 17:11:00,81.1,46.8,29.97,South,180,0.0,7.2,30,0.00,,,0.00,VWS V14.01,2013-09-27 22:11:00,
2013-09-27 17:16:00,80.8,46.5,29.97,South,180,0.0,0.0,30,0.00,,,0.00,VWS V14.01,2013-09-27 22:16:00,
2013-09-27 17:21:00,80.6,46.3,29.97,SSW,202,0.0,0.0,30,0.00,,,0.00,VWS V14.01,2013-09-27 22:21:00,
2013-09-27 17:26:00,80.4,47.0,29.97,SSE,158,0.0,0.0,31,0.00,,,0.00,VWS V14.01,2013-09-27 22:26:00,
2013-09-27 17:31:00,80.1,45.9,29.97,South,180,0.0,0.0,30,0.00,,,0.00,VWS V14.01,2013-09-27 22:31:00,
2013-09-27 17:36:00,79.9,45.7,29.97,South,180,0.0,0.0,30,0.00,,,0.00,VWS V14.01,2013-09-27 22:36:00,
2013-09-27 17:41:00,79.5,45.4,29.97,South,180,0.0,0.0,30,0.00,,,0.00,VWS V14.01,2013-09-27 22:41:00,
2013-09-27 17:46:00,79.3,46.1,29.97,South,180,0.0,3.1,31,0.00,,,0.00,VWS V14.01,2013-09-27 22:46:00,
2013-09-27 17:51:00,79.2,46.0,29.97,SSE,158,3.1,5.4,31,0.00,,,0.00,VWS V14.01,2013-09-27 22:51:00,
2013-09-27 17:56:00,79.0,45.8,29.97,SSE,158,0.0,0.0,31,0.00,,,0.00,VWS V14.01,2013-09-27 22:56:00,
2013-09-27 18:01:00,78.8,45.6,29.97,SSE,158,0.0,3.6,31,0.00,,,0.00,VWS V14.01,2013-09-27 23:01:00,
2013-09-27 18:06:00,78.6,45.5,29.97,South,180,2.7,4.0,31,0.00,,,0.00,VWS V14.01,2013-09-27 23:06:00,
2013-09-27 18:11:00,78.4,45.3,29.97,SSW,202,0.0,0.0,31,0.00,,,0.00,VWS V14.01,2013-09-27 23:11:00,
2013-09-27 18:16:00,78.3,46.0,29.97,South,180,0.0,0.0,32,0.00,,,0.00,VWS V14.01,2013-09-27 23:16:00,
2013-09-27 18:21:00,77.9,45.7,29.97,SSW,202,0.0,0.0,32,0.00,,,0.00,VWS V14.01,2013-09-27 23:21:00,
2013-09-27 18:26:00,77.5,45.4,29.97,SSW,202,0.0,0.0,32,0.00,,,0.00,VWS V14.01,2013-09-27 23:26:00,
2013-09-27 18:31:00,77.4,45.2,29.97,South,180,0.0,0.0,32,0.00,,,0.00,VWS V14.01,2013-09-27 23:31:00,
2013-09-27 18:36:00,77.2,45.1,29.97,SSE,158,0.0,0.0,32,0.00,,,0.00,VWS V14.01,2013-09-27 23:36:00,
2013-09-27 18:41:00,76.8,44.8,29.97,SSE,158,0.0,0.0,32,0.00,,,0.00,VWS V14.01,2013-09-27 23:41:00,
2013-09-27 18:46:00,76.6,44.6,29.97,SSE,158,0.0,0.0,32,0.00,,,0.00,VWS V14.01,2013-09-27 23:46:00,
2013-09-27 18:51:00,76.5,45.2,29.97,SSW,202,0.0,0.0,33,0.00,,,0.00,VWS V14.01,2013-09-27 23:51:00,
2013-09-27 18:56:00,76.1,44.9,29.97,SSW,202,0.0,0.0,33,0.00,,,0.00,VWS V14.01,2013-09-27 23:56:00,
2013-09-27 19:01:00,75.9,44.8,29.97,South,180,0.0,0.0,33,0.00,,,0.00,VWS V14.01,2013-09-28 00:01:00,
2013-09-27 19:06:00,75.6,45.2,29.97,SSE,158,0.0,0.0,34,0.00,,,0.00,VWS V14.01,2013-09-28 00:06:00,
2013-09-27 19:11:00,75.2,44.9,29.97,SSE,158,0.0,0.0,34,0.00,,,0.00,VWS V14.01,2013-09-28 00:11:00,
2013-09-27 19:16:00,75.0,45.5,29.97,SE,135,0.0,0.0,35,0.00,,,0.00,VWS V14.01,2013-09-28 00:16:00,
2013-09-27 19:21:00,74.7,46.0,29.97,South,180,0.0,0.0,36,0.00,,,0.00,VWS V14.01,2013-09-28 00:21:00,
2013-09-27 19:26:00,74.5,45.8,29.97,SSE,158,0.0,0.0,36,0.00,,,0.00,VWS V14.01,2013-09-28 00:26:00,
2013-09-27 19:31:00,74.3,46.4,29.97,SSE,158,0.0,0.0,37,0.00,,,0.00,VWS V14.01,2013-09-28 00:31:00,
2013-09-27 19:36:00,74.1,46.9,29.97,SE,135,0.0,0.0,38,0.00,,,0.00,VWS V14.01,2013-09-28 00:36:00,
2013-09-27 19:42:00,73.9,46.8,29.97,SSE,158,0.0,0.0,38,0.00,,,0.00,VWS V14.01,2013-09-28 00:42:00,
2013-09-27 19:47:00,73.6,47.1,29.97,ESE,112,0.0,0.0,39,0.00,,,0.00,VWS V14.01,2013-09-28 00:47:00,
2013-09-27 19:52:00,73.4,47.0,29.97,SSE,158,0.0,0.0,39,0.00,,,0.00,VWS V14.01,2013-09-28 00:52:00,
2013-09-27 19:57:00,73.4,47.0,29.97,SE,135,0.0,0.0,39,0.00,,,0.00,VWS V14.01,2013-09-28 00:57:00,
2013-09-27 20:02:00,73.2,47.5,29.97,SSE,158,0.0,0.0,40,0.00,,,0.00,VWS V14.01,2013-09-28 01:02:00,
2013-09-27 20:07:00,73.2,47.5,29.97,SE,135,0.0,0.0,40,0.00,,,0.00,VWS V14.01,2013-09-28 01:07:00,
2013-09-27 20:12:00,73.0,47.3,29.97,East,90,0.0,0.0,40,0.00,,,0.00,VWS V14.01,2013-09-28 01:12:00,
2013-09-27 20:17:00,72.9,47.2,29.97,SSE,158,0.0,0.0,40,0.00,,,0.00,VWS V14.01,2013-09-28 01:17:00,
2013-09-27 20:22:00,72.7,47.0,29.97,SSE,158,0.0,0.0,40,0.00,,,0.00,VWS V14.01,2013-09-28 01:22:00,
2013-09-27 20:27:00,72.7,47.0,29.97,South,180,0.0,0.0,40,0.00,,,0.00,VWS V14.01,2013-09-28 01:27:00,
2013-09-27 20:32:00,72.5,46.2,29.97,SSE,158,0.0,0.0,39,0.00,,,0.00,VWS V14.01,2013-09-28 01:32:00,
2013-09-27 20:37:00,72.5,46.2,29.97,SSE,158,0.0,0.0,39,0.00,,,0.00,VWS V14.01,2013-09-28 01:37:00,
2013-09-27 20:43:00,72.3,46.0,29.97,South,180,0.0,0.0,39,0.00,,,0.00,VWS V14.01,2013-09-28 01:43:00,
2013-09-27 20:48:00,72.1,45.8,29.97,SSE,158,0.0,0.0,39,0.00,,,0.00,VWS V14.01,2013-09-28 01:48:00,
2013-09-27 20:53:00,72.0,45.7,29.97,ESE,112,0.0,0.0,39,0.00,,,0.00,VWS V14.01,2013-09-28 01:53:00,
2013-09-27 20:58:00,72.0,45.7,29.97,SE,135,0.0,0.0,39,0.00,,,0.00,VWS V14.01,2013-09-28 01:58:00,
2013-09-27 21:03:00,71.8,45.5,29.97,SSW,202,0.0,0.0,39,0.00,,,0.00,VWS V14.01,2013-09-28 02:03:00,
2013-09-27 21:08:00,71.8,45.5,29.97,SSE,158,0.0,0.0,39,0.00,,,0.00,VWS V14.01,2013-09-28 02:08:00,
2013-09-27 21:13:00,71.6,45.4,29.97,South,180,0.0,0.0,39,0.00,,,0.00,VWS V14.01,2013-09-28 02:13:00,
2013-09-27 21:18:00,71.4,45.9,29.97,SSE,158,0.0,0.0,40,0.00,,,0.00,VWS V14.01,2013-09-28 02:18:00,
2013-09-27 21:23:00,71.2,45.7,29.97,SE,135,0.0,0.0,40,0.00,,,0.00,VWS V14.01,2013-09-28 02:23:00,
2013-09-27 21:28:00,71.1,45.5,29.97,East,90,0.0,0.0,40,0.00,,,0.00,VWS V14.01,2013-09-28 02:28:00,
2013-09-27 21:33:00,70.9,45.4,29.97,SE,135,0.0,0.0,40,0.00,,,0.00,VWS V14.01,2013-09-28 02:33:00,
2013-09-27 21:38:00,70.7,44.5,29.97,South,180,0.0,0.0,39,0.00,,,0.00,VWS V14.01,2013-09-28 02:38:00,
2013-09-27 21:43:00,70.7,44.5,29.97,SSE,158,0.0,0.0,39,0.00,,,0.00,VWS V14.01,2013-09-28 02:43:00,
2013-09-27 21:48:00,70.5,43.7,29.97,SSW,202,0.0,0.0,38,0.00,,,0.00,VWS V14.01,2013-09-28 02:48:00,
2013-09-27 21:53:00,70.5,43.7,29.97,SSE,158,0.0,0.0,38,0.00,,,0.00,VWS V14.01,2013-09-28 02:53:00,
2013-09-27 21:58:00,70.3,43.5,29.97,SE,135,0.0,0.0,38,0.00,,,0.00,VWS V14.01,2013-09-28 02:58:00,
2013-09-27 22:03:00,70.2,42.7,29.97,South,180,0.0,0.0,37,0.00,,,0.00,VWS V14.01,2013-09-28 03:03:00,
2013-09-27 22:08:00,70.2,42.7,29.97,South,180,0.0,0.0,37,0.00,,,0.00,VWS V14.01,2013-09-28 03:08:00,
2013-09-27 22:13:00,70.2,42.7,29.97,South,180,0.0,0.0,37,0.00,,,0.00,VWS V14.01,2013-09-28 03:13:00,
2013-09-27 22:18:00,70.0,42.5,29.97,ESE,112,0.0,0.0,37,0.00,,,0.00,VWS V14.01,2013-09-28 03:18:00,
2013-09-27 22:23:00,70.0,41.8,29.97,South,180,0.0,0.0,36,0.00,,,0.00,VWS V14.01,2013-09-28 03:23:00,
2013-09-27 22:28:00,70.0,41.8,29.97,SSE,158,0.0,0.0,36,0.00,,,0.00,VWS V14.01,2013-09-28 03:28:00,
2013-09-27 22:33:00,69.8,40.9,29.97,South,180,0.0,0.0,35,0.00,,,0.00,VWS V14.01,2013-09-28 03:33:00,
2013-09-27 22:38:00,69.6,41.5,29.97,South,180,0.0,0.0,36,0.00,,,0.00,VWS V14.01,2013-09-28 03:38:00,
2013-09-27 22:43:00,69.6,41.5,29.97,SSE,158,0.0,0.0,36,0.00,,,0.00,VWS V14.01,2013-09-28 03:43:00,
2013-09-27 22:48:00,69.4,41.3,29.97,South,180,0.0,0.0,36,0.00,,,0.00,VWS V14.01,2013-09-28 03:48:00,
2013-09-27 22:53:00,69.3,41.2,29.97,South,180,0.0,0.0,36,0.00,,,0.00,VWS V14.01,2013-09-28 03:53:00,
2013-09-27 22:58:00,69.1,41.0,29.97,South,180,0.0,0.0,36,0.00,,,0.00,VWS V14.01,2013-09-28 03:58:00,
2013-09-27 23:01:00,69.1,41.0,29.97,South,180,0.0,0.0,36,0.00,,,0.00,VWS V14.01,2013-09-28 04:01:00,
2013-09-27 23:06:00,69.1,40.3,29.97,SSE,158,0.0,0.0,35,0.00,,,0.00,VWS V14.01,2013-09-28 04:06:00,
2013-09-27 23:11:00,69.1,40.3,29.97,South,180,0.0,0.0,35,0.00,,,0.00,VWS V14.01,2013-09-28 04:11:00,
2013-09-27 23:16:00,68.9,40.2,29.97,South,180,0.0,0.0,35,0.00,,,0.00,VWS V14.01,2013-09-28 04:16:00,
2013-09-27 23:21:00,68.9,40.2,29.97,South,180,0.0,0.0,35,0.00,,,0.00,VWS V14.01,2013-09-28 04:21:00,
2013-09-27 23:26:00,68.9,40.2,29.97,South,180,0.0,0.0,35,0.00,,,0.00,VWS V14.01,2013-09-28 04:26:00,
2013-09-27 23:31:00,68.9,40.2,29.97,SSE,158,0.0,0.0,35,0.00,,,0.00,VWS V14.01,2013-09-28 04:31:00,
2013-09-27 23:36:00,68.9,40.2,29.97,SSE,158,0.0,0.0,35,0.00,,,0.00,VWS V14.01,2013-09-28 04:36:00,
2013-09-27 23:41:00,68.7,40.0,29.97,South,180,0.0,0.0,35,0.00,,,0.00,VWS V14.01,2013-09-28 04:41:00,
2013-09-27 23:46:00,68.7,40.0,29.97,South,180,0.0,0.0,35,0.00,,,0.00,VWS V14.01,2013-09-28 04:46:00,
2013-09-27 23:51:00,68.7,40.0,29.97,SSE,158,0.0,0.0,35,0.00,,,0.00,VWS V14.01,2013-09-28 04:51:00,
2013-09-27 23:56:00,68.5,40.5,29.97,SSW,202,0.0,0.0,36,0.00,,,0.00,VWS V14.01,2013-09-28 04:56:00,